Weather History for Clarion, IA

Change the Weather History Date:

Sunday, March 24, 2013

  Actual Average Record
Temperature  
Mean Temperature 27 °F -  
Max Temperature 30 °F 46 °F 82 °F (1967)
Min Temperature 24 °F 25 °F -4 °F (1974)
Degree Days  
Heating Degree Days 38    
Moisture  
Dew Point 25 °F    
Average Humidity 87    
Maximum Humidity 93    
Minimum Humidity 74    
Precipitation  
Precipitation 0.00 in - - ()
Sea Level Pressure  
Sea Level Pressure 29.97 in    
Wind  
Wind Speed 14 mph (North)    
Max Wind Speed 20 mph    
Max Gust Speed 26 mph    
Visibility 6 miles    
Events Rain , Snow    
Averages and records for this station are not official NWS values.
T = Trace of Precipitation, MM = Missing Value Source: NWS Daily Summary

Daily Weather History Graph

Daily Weather History Graph

Search for Another Location

Airport:

Trip Planner

Search our weather history database for the weather conditions in past years. The results will help you decide how hot, cold, wet, or windy it might be!

Date:

Astronomy

Mar. 24, 2013 Rise Set
Actual Time 7:10 AM CDT 7:32 PM CDT
Civil Twilight 6:42 AM CDT 8:00 PM CDT
Nautical Twilight 6:09 AM CDT 8:33 PM CDT
Astronomical Twilight 5:35 AM CDT 9:08 PM CDT
Moon 4:58 PM CDT (3/24) 5:24 AM CDT (3/24)
Length of Visible Light 13h 18m
Length of Day
12h 21m
Waxing Gibbous, 92% of the Moon is Illuminated
Mar 24
Waxing Gibbous
Mar 27
Full
Apr 2
Last Quarter
Apr 10
New
Apr 18
First Quarter

Hourly Weather History & Observations

Time (CDT) Temp. Windchill Dew Point Humidity Pressure Visibility Wind Dir Wind Speed Gust Speed Precip Events Conditions
12:15 AM 28.4 °F 17.0 °F 23.0 °F 80% 30.05 in 10.0 mi North 15.0 mph - N/A   Overcast
12:35 AM 28.4 °F 17.0 °F 23.0 °F 80% 30.04 in 10.0 mi North 15.0 mph - N/A   Overcast
12:55 AM 28.4 °F 17.5 °F 21.2 °F 74% 30.04 in 10.0 mi North 13.8 mph 19.6 mph N/A   Overcast
1:15 AM 28.4 °F 18.0 °F 21.2 °F 74% 30.04 in 10.0 mi North 12.7 mph 19.6 mph N/A   Overcast
1:35 AM 28.4 °F 17.5 °F 23.0 °F 80% 30.04 in 10.0 mi North 13.8 mph - N/A   Overcast
1:55 AM 28.4 °F 18.5 °F 23.0 °F 80% 30.04 in 10.0 mi North 11.5 mph - N/A   Overcast
2:15 AM 28.4 °F 18.5 °F 21.2 °F 74% 30.05 in 10.0 mi North 11.5 mph 19.6 mph N/A   Overcast
2:35 AM 28.4 °F 19.1 °F 23.0 °F 80% 30.05 in 10.0 mi North 10.4 mph 18.4 mph N/A   Overcast
2:55 AM 28.4 °F 18.0 °F 23.0 °F 80% 30.04 in 10.0 mi North 12.7 mph - N/A   Overcast
3:15 AM 26.6 °F 16.8 °F 23.0 °F 86% 30.03 in 10.0 mi North 10.4 mph - N/A   Overcast
3:35 AM 26.6 °F 15.7 °F 23.0 °F 86% 30.03 in 10.0 mi North 12.7 mph 20.7 mph N/A   Overcast
3:55 AM 26.6 °F 14.7 °F 23.0 °F 86% 30.02 in 10.0 mi NNW 15.0 mph - N/A   Overcast
4:15 AM 26.6 °F 13.8 °F 23.0 °F 86% 30.01 in 9.0 mi NNW 17.3 mph - N/A Rain Light Freezing Rain
4:35 AM 26.6 °F 14.3 °F 23.0 °F 86% 30.00 in 10.0 mi NNW 16.1 mph 21.9 mph N/A Rain Light Freezing Rain
4:55 AM 26.6 °F 13.8 °F 23.0 °F 86% 29.99 in 10.0 mi NNW 17.3 mph - N/A   Overcast
5:15 AM 26.6 °F 14.7 °F 23.0 °F 86% 29.99 in 10.0 mi North 15.0 mph 21.9 mph N/A   Overcast
5:35 AM 26.6 °F 13.8 °F 23.0 °F 86% 29.99 in 8.0 mi NNW 17.3 mph 23.0 mph N/A   Overcast
5:55 AM 24.8 °F 12.4 °F 23.0 °F 93% 29.98 in 2.0 mi North 15.0 mph - N/A   Overcast
6:15 AM 24.8 °F 12.9 °F 23.0 °F 93% 29.99 in 2.0 mi North 13.8 mph 19.6 mph N/A   Overcast
6:35 AM 24.8 °F 12.9 °F 23.0 °F 93% 29.99 in 4.0 mi NNW 13.8 mph - N/A Rain Light Freezing Rain
6:55 AM 24.8 °F 13.4 °F 23.0 °F 93% 29.98 in 9.0 mi North 12.7 mph 19.6 mph N/A   Light Freezing Rain
7:15 AM 24.8 °F 13.4 °F 23.0 °F 93% 29.98 in 8.0 mi North 12.7 mph - N/A   Light Freezing Rain
7:35 AM 24.8 °F 12.9 °F 23.0 °F 93% 29.97 in 4.0 mi North 13.8 mph 20.7 mph N/A Rain Light Freezing Rain
7:55 AM 24.8 °F 13.4 °F 23.0 °F 93% 29.98 in 3.0 mi North 12.7 mph 19.6 mph N/A   Mostly Cloudy
8:15 AM 26.6 °F 14.7 °F 23.0 °F 86% 29.98 in 2.0 mi NNW 15.0 mph - N/A   Mostly Cloudy
8:35 AM 26.6 °F 15.7 °F 23.0 °F 86% 29.97 in 2.0 mi North 12.7 mph 20.7 mph N/A Rain Light Freezing Rain
8:55 AM 26.6 °F 14.7 °F 23.0 °F 86% 29.97 in 4.0 mi North 15.0 mph 23.0 mph N/A Rain Light Freezing Rain
9:15 AM 26.6 °F 13.8 °F 23.0 °F 86% 29.97 in 5.0 mi North 17.3 mph - N/A Rain Light Freezing Rain
9:35 AM 26.6 °F 14.7 °F 23.0 °F 86% 29.97 in 6.0 mi North 15.0 mph 23.0 mph N/A Rain Light Freezing Rain
9:55 AM 26.6 °F 15.2 °F 23.0 °F 86% 29.97 in 6.0 mi North 13.8 mph 21.9 mph N/A Rain Light Freezing Rain
10:15 AM 26.6 °F 15.7 °F 24.8 °F 93% 29.96 in 5.0 mi North 12.7 mph 21.9 mph N/A Rain Light Freezing Rain
10:35 AM 26.6 °F 14.3 °F 24.8 °F 93% 29.97 in 1.8 mi North 16.1 mph - N/A Snow Light Snow
10:55 AM 28.4 °F 17.5 °F 24.8 °F 86% 29.97 in 2.0 mi North 13.8 mph 19.6 mph N/A Snow Light Snow
11:15 AM 28.4 °F 17.0 °F 24.8 °F 86% 29.96 in 2.0 mi North 15.0 mph - N/A Snow Light Snow
11:35 AM 28.4 °F 18.0 °F 24.8 °F 86% 29.96 in 1.5 mi North 12.7 mph 19.6 mph N/A Snow Light Snow
11:55 AM 28.4 °F 16.6 °F 24.8 °F 86% 29.95 in 2.0 mi North 16.1 mph - N/A Snow Light Snow
12:15 PM 28.4 °F 18.0 °F 24.8 °F 86% 29.95 in 4.0 mi North 12.7 mph 18.4 mph N/A Rain Light Freezing Rain
12:35 PM 28.4 °F 17.5 °F 24.8 °F 86% 29.94 in 7.0 mi North 13.8 mph - N/A Rain Light Freezing Rain
12:55 PM 28.4 °F 17.0 °F 24.8 °F 86% 29.94 in 9.0 mi North 15.0 mph - N/A   Mostly Cloudy
1:15 PM 28.4 °F 17.0 °F 24.8 °F 86% 29.94 in 9.0 mi North 15.0 mph - N/A   Mostly Cloudy
1:35 PM 30.2 °F 19.8 °F 24.8 °F 80% 29.93 in 10.0 mi North 13.8 mph - N/A   Mostly Cloudy
1:55 PM 30.2 °F 19.3 °F 26.6 °F 86% 29.93 in 10.0 mi NNW 15.0 mph - N/A   Overcast
2:15 PM 30.2 °F 19.3 °F 24.8 °F 80% 29.92 in 10.0 mi NNW 15.0 mph - N/A   Mostly Cloudy
2:35 PM 30.2 °F 19.8 °F 26.6 °F 86% 29.92 in 10.0 mi North 13.8 mph 19.6 mph N/A   Overcast
2:55 PM 30.2 °F 20.2 °F 26.6 °F 86% 29.92 in 6.0 mi North 12.7 mph 20.7 mph N/A   Light Freezing Rain
3:15 PM 30.2 °F 18.9 °F 26.6 °F 86% 29.92 in 9.0 mi NNW 16.1 mph 21.9 mph N/A Rain Light Freezing Rain
3:35 PM 30.2 °F 18.5 °F 26.6 °F 86% 29.91 in 4.0 mi NNW 17.3 mph - N/A Rain Light Freezing Rain
3:55 PM 30.2 °F 18.9 °F 26.6 °F 86% 29.91 in 5.0 mi NNW 16.1 mph 21.9 mph N/A Rain Light Freezing Rain
4:15 PM 30.2 °F 18.5 °F 24.8 °F 80% 29.91 in 10.0 mi NNW 17.3 mph 24.2 mph N/A   Light Freezing Rain
4:35 PM 30.2 °F 18.5 °F 26.6 °F 86% 29.91 in 9.0 mi NNW 17.3 mph 23.0 mph N/A   Light Freezing Rain
4:55 PM 30.2 °F 18.9 °F 26.6 °F 86% 29.92 in 1.8 mi NNW 16.1 mph 21.9 mph N/A   Mostly Cloudy
5:15 PM 30.2 °F 18.9 °F 26.6 °F 86% 29.92 in 1.8 mi NNW 16.1 mph 23.0 mph N/A   Scattered Clouds
5:35 PM 30.2 °F 18.1 °F 26.6 °F 86% 29.92 in 2.5 mi NNW 18.4 mph 24.2 mph N/A   Mostly Cloudy
5:55 PM 30.2 °F 17.8 °F 26.6 °F 86% 29.92 in 1.5 mi NNW 19.6 mph 26.5 mph N/A   Mostly Cloudy
6:15 PM 30.2 °F 17.8 °F 26.6 °F 86% 29.92 in 2.0 mi NNW 19.6 mph - N/A Snow Light Snow
6:35 PM 30.2 °F 18.5 °F 26.6 °F 86% 29.92 in 1.5 mi NNW 17.3 mph 24.2 mph N/A   Mostly Cloudy
6:55 PM 28.4 °F 16.6 °F 26.6 °F 93% 29.93 in 0.5 mi North 16.1 mph 26.5 mph N/A   Overcast
7:15 PM 28.4 °F 17.5 °F 26.6 °F 93% 29.94 in 3.0 mi North 13.8 mph - N/A   Mostly Cloudy
7:35 PM 28.4 °F 18.0 °F 26.6 °F 93% 29.94 in 2.0 mi North 12.7 mph 19.6 mph N/A   Overcast
7:55 PM 28.4 °F 19.1 °F 26.6 °F 93% 29.95 in 2.0 mi North 10.4 mph - N/A   Overcast
8:15 PM 28.4 °F 18.5 °F 26.6 °F 93% 29.96 in 2.5 mi North 11.5 mph - N/A Snow Light Snow
8:35 PM 28.4 °F 18.5 °F 26.6 °F 93% 29.96 in 2.5 mi North 11.5 mph - N/A   Overcast
8:55 PM 28.4 °F 18.5 °F 26.6 °F 93% 29.97 in 2.5 mi North 11.5 mph 17.3 mph N/A   Mostly Cloudy
9:15 PM 28.4 °F 18.0 °F 26.6 °F 93% 29.97 in 2.5 mi North 12.7 mph - N/A   Mostly Cloudy
9:35 PM 28.4 °F 18.0 °F 26.6 °F 93% 29.97 in 2.0 mi North 12.7 mph - N/A   Overcast
9:55 PM 28.4 °F 16.6 °F 26.6 °F 93% 29.97 in 2.5 mi North 16.1 mph - N/A   Overcast
10:15 PM 28.4 °F 17.5 °F 26.6 °F 93% 29.98 in 3.0 mi North 13.8 mph - N/A   Overcast
10:35 PM 28.4 °F 18.0 °F 24.8 °F 86% 29.97 in 5.0 mi North 12.7 mph 19.6 mph N/A Rain Light Freezing Rain
10:55 PM 28.4 °F 18.0 °F 24.8 °F 86% 29.97 in 3.0 mi North 12.7 mph 19.6 mph N/A Rain Light Freezing Rain
11:15 PM 28.4 °F 18.0 °F 26.6 °F 93% 29.97 in 2.5 mi North 12.7 mph 19.6 mph N/A Snow Light Snow
11:35 PM 28.4 °F 18.5 °F 24.8 °F 86% 29.97 in 5.0 mi North 11.5 mph - N/A   Overcast
11:55 PM 28.4 °F 19.1 °F 24.8 °F 86% 29.98 in 4.0 mi NNW 10.4 mph 18.4 mph N/A Rain Light Freezing Rain